Location: Banff
(51.1667°N, 115.5667°W)
Time: 13:18:41
(UTC+00:00)

Vanguard 1 Rocket - Pass Details

Date: 27 November 2020
Orbit: 655 x 4222 km, 34.3° (Epoch: 23 January)

Event Time Altitude Azimuth Distance (km) Brightness Sun altitude
Rises 14:37:59 0° 273° (W) 7,648 - -6.4°
Exits shadow 14:38:10 - 272° (W) 7,605 11.5 -6.4°
Reaches altitude 10° 14:45:03 10° 263° (W) 6,032 11.1 -5.5°
Maximum altitude 14:57:03 24° 218° (SW) 3,670 10.4 -3.8°
Drops below altitude 10° 15:04:47 10° 169° (SSE) 3,740 11.2 -2.8°
Sets 15:07:55 0° 155° (SSE) 4,309 12.0 -2.3°
